[[{"header":{"parameterUnit":"m.s-1","parameterCategory":1,"la1":30.2991,"la2":30.254,"lo1":-89.0895,"lo2":-89.0444,"dy":0.0017,"dx":0.0017,"nx":28,"ny":28,"refTime":"2024-07-02T09:00:00:Z","depth":0,"parameterNumber":2,"parameterNumberName":"U-component_of_WINDS"},"data":[0,0,0,0,0,0,0,0,0,0,0,0,0,0,0,0,0,0,0,0,0,0,0,0,0,0,0,0,0,0,0,0,0,0,0,0,0,0,0,0,0,0,0,0,0,0,0,0,0,0,0,0,0,0,0,0,0,0,0.0814,0.0814,0,0.0803,0.0803,0.0803,0.0791,0.0791,0.0791,0.0791,0.0778,0.0778,0.0778,0,0,0,0,0,0,0,0,0,0,0,0,0,0.0824,0.0824,0.0814,0.0814,0.0814,0.0803,0.0803,0.0803,0.0791,0.0791,0.0791,0.079,0.0778,0.0778,0.0778,0,0,0,0,0,0,0,0,0,0,0,0,0,0.0817,0.0824,0.0814,0.0807,0.0806,0.0803,0.0803,0.0803,0.0791,0.0791,0.0791,0.079,0.0778,0.0778,0.0778,0.0781,0,0,0.0777,0.0777,0,0,0,0,0,0,0,0,0.0817,0.0816,0.0808,0.0807,0.0806,0.0798,0.0802,0.0795,0.0791,0.0797,0.0791,0.079,0.0785,0.0784,0.0783,0.0781,0.078,0.0777,0.0777,0.0777,0.0777,0,0,0,0,0,0,0,0.0818,0.0817,0.081,0.0808,0.0807,0.0803,0.0802,0.08,0.0792,0.0796,0.0795,0.0794,0.0785,0.0783,0.0782,0.078,0.0777,0.0777,0.0777,0.0777,0.0778,0.0778,0,0,0,0,0,0,0.0819,0.0817,0.081,0.0809,0.0811,0.0803,0.0802,0.0801,0.0792,0.0791,0.0794,0.0794,0.0783,0.0783,0.0782,0.0784,0.0777,0.0777,0.0776,0.0778,0.0778,0.0778,0,0,0,0,0,0,0.082,0.0819,0.0811,0.0813,0.0812,0.0804,0.0803,0.0801,0.0799,0.0791,0.0789,0.0794,0.0783,0.0782,0.0781,0.0783,0.0776,0.0776,0.0778,0.0778,0.0778,0.0789,0,0,0,0,0,0,0.082,0.0819,0.0821,0.0813,0.0812,0.0811,0.0803,0.0801,0.0799,0.0798,0.0791,0.0789,0.0783,0.0781,0.0781,0.0783,0.0776,0.0777,0.0778,0.0778,0.0788,0.0789,0.079,0,0,0,0,0,0.082,0.0824,0.0821,0.082,0.0814,0.0811,0.081,0.0803,0.0799,0.08,0.0795,0.0789,0.0783,0.0781,0.0781,0.0783,0.0777,0.0778,0.0778,0.0788,0.0789,0.079,0,0,0,0,0,0,0.0833,0.0823,0.0819,0.0821,0.0817,0.0809,0.081,0.0805,0.0802,0.0801,0.0792,0.079,0.079,0.0786,0.0784,0.0784,0.0779,0.078,0.0787,0.0788,0.0789,0.079,0.0776,0,0,0,0,0,0.0836,0.0834,0.0826,0.0828,0.0826,0.0819,0.0817,0.0812,0.0807,0.0805,0.08,0.0795,0.0792,0.079,0.0787,0.0787,0.0785,0.0788,0.0789,0.079,0.0791,0.079,0.0791,0.078,0.078,0.078,0,0,0.0842,0.0836,0.0836,0.0831,0.0827,0.0825,0.0817,0.0816,0.0814,0.0805,0.0803,0.0799,0.0793,0.0792,0.0792,0.0789,0.0793,0.0791,0.0792,0.0792,0.079,0.0791,0.0792,0.078,0.078,0.078,0,0,0.0851,0.0848,0.0849,0.0845,0.0839,0.0833,0.0833,0.0826,0.0822,0.0821,0.0813,0.0811,0.0806,0.0801,0.0798,0.0805,0.0799,0.0804,0.081,0.0809,0.081,0.081,0.0812,0.0813,0.0804,0.0804,0.0804,0,0.086,0.0857,0.085,0.0849,0.0846,0.0837,0.0837,0.0834,0.0827,0.0825,0.0822,0.0814,0.081,0.0808,0.0809,0.0807,0.0806,0.0805,0.081,0.0811,0.0811,0.0813,0.0813,0.0805,0.0805,0.0805,0.0805,0,0.0867,0.0865,0.0866,0.086,0.0857,0.0857,0.0849,0.0847,0.0842,0.0836,0.0834,0.0828,0.0822,0.0821,0.0817,0.0818,0.0816,0.0812,0.0807,0.0813,0.0814,0.0815,0.0806,0.0806,0.0805,0.0805,0,0,0.0885,0.0873,0.0874,0.087,0.0862,0.086,0.0859,0.0854,0.0852,0.0847,0.0845,0.084,0.0836,0.0832,0.0827,0.0826,0.083,0.0821,0.0821,0.0823,0.083,0.0833,0.0834,0.0826,0.0826,0.0826,0.083,0,0.0893,0.089,0.0883,0.0882,0.088,0.0871,0.0869,0.0864,0.0858,0.0855,0.0849,0.0845,0.084,0.0838,0.0837,0.083,0.0831,0.083,0.0824,0.0824,0.0825,0.0835,0.0838,0.0842,0.0831,0.0831,0.0831,0,0.0902,0.0897,0.0897,0.0887,0.0886,0.0885,0.0879,0.0876,0.0869,0.0865,0.0861,0.0854,0.0851,0.0847,0.0842,0.0841,0.0838,0.0834,0.0834,0.0833,0.0828,0.0833,0.0844,0.0844,0.0832,0.0832,0.0832,0,0.0914,0.0908,0.0906,0.0903,0.0893,0.0892,0.0888,0.0881,0.0877,0.0872,0.0869,0.0864,0.086,0.0856,0.0847,0.0845,0.0843,0.0838,0.0839,0.0839,0.0839,0.0839,0.0849,0.0838,0.0838,0.0838,0.0838,0,0.0924,0.0923,0.0911,0.091,0.0909,0.09,0.0899,0.0894,0.0887,0.0884,0.0876,0.0873,0.0862,0.0858,0.0852,0.0848,0.0847,0.0843,0.0841,0.0844,0.0844,0.0841,0.0841,0.0838,0.0838,0.0838,0.0838,0,0.0937,0.0929,0.0926,0.0916,0.0914,0.0913,0.0905,0.0903,0.0896,0.0893,0.0891,0.0881,0.0876,0.0867,0.0859,0.0854,0.0852,0.0849,0.0854,0.0853,0.0855,0.0854,0.0862,0.0863,0.0852,0.0852,0.0852,0,0.0943,0.0943,0.0933,0.093,0.0926,0.0922,0.0919,0.0909,0.0906,0.0897,0.0896,0.089,0.0885,0.0876,0.0868,0.0861,0.0858,0.0861,0.0857,0.0859,0.0857,0.0857,0.0857,0.0862,0.0862,0.0862,0.0862,0,0.0955,0.0951,0.0947,0.094,0.0937,0.0931,0.0926,0.0924,0.0913,0.0909,0.0904,0.09,0.0891,0.0885,0.0877,0.0871,0.0865,0.0864,0.0864,0.0866,0.0869,0.0866,0.0856,0.0864,0.0864,0.0863,0.0863,0.0863,0.0965,0.0963,0.0956,0.0951,0.0945,0.094,0.0937,0.093,0.0925,0.0918,0.0912,0.0907,0.0898,0.0887,0.0882,0.0877,0.0874,0.0874,0.0874,0.0874,0.0875,0.087,0.0875,0.0875,0.0875,0.0875,0.0875,0,0.0976,0.097,0.0965,0.0957,0.0953,0.0947,0.094,0.0937,0.0932,0.0925,0.092,0.0912,0.0906,0.0897,0.0889,0.0887,0.0884,0.0885,0.0885,0.0884,0.0878,0.0878,0.0888,0.0888,0.0888,0.0888,0.0888,0.0888,0.0981,0.0978,0.0972,0.0966,0.096,0.0955,0.0951,0.0945,0.094,0.0932,0.0927,0.0921,0.0912,0.0904,0.0897,0.0895,0.0892,0.0894,0.0891,0.0885,0.0884,0.0883,0.0884,0.0894,0.0894,0.0897,0.0897,0.0897]},{"header":{"parameterUnit":"m.s-1","parameterCategory":1,"la1":30.2991,"la2":30.254,"lo1":-89.0895,"lo2":-89.0444,"dy":0.0017,"dx":0.0017,"nx":28,"ny":28,"refTime":"2024-07-02T09:00:00:Z","depth":0,"parameterNumber":3,"parameterNumberName":"V-component_of_WINDS"},"data":[0,0,0,0,0,0,0,0,0,0,0,0,0,0,0,0,0,0,0,0,0,0,0,0,0,0,0,0,0,0,0,0,0,0,0,0,0,0,0,0,0,0,0,0,0,0,0,0,0,0,0,0,0,0,0,0,0,0,6.0374,6.0374,0,6.0438,6.0439,6.044,6.0364,6.0362,6.0359,6.0356,6.0417,6.0422,6.0426,0,0,0,0,0,0,0,0,0,0,0,0,0,6.0179,6.0183,6.0374,6.0374,6.0375,6.0438,6.0439,6.044,6.0365,6.0361,6.0358,6.0355,6.0416,6.0421,6.0426,0,0,0,0,0,0,0,0,0,0,0,0,0,6.0255,6.0184,6.0373,6.0345,6.0344,6.0438,6.0439,6.044,6.0366,6.0361,6.0357,6.0353,6.0414,6.0421,6.0427,6.055,0,0,6.0446,6.0449,0,0,0,0,0,0,0,0,6.0251,6.0263,6.0349,6.0348,6.0346,6.0389,6.0393,6.0477,6.0367,6.0357,6.0356,6.0351,6.0411,6.0417,6.0439,6.0553,6.0556,6.0447,6.0451,6.0453,6.0455,0,0,0,0,0,0,0,6.0246,6.0259,6.0399,6.035,6.0348,6.0328,6.0334,6.0408,6.0407,6.0358,6.0352,6.0361,6.0409,6.0433,6.0439,6.0557,6.0447,6.0452,6.0456,6.0459,6.0774,6.0778,0,0,0,0,0,0,6.0245,6.0255,6.0397,6.0401,6.0287,6.0335,6.0342,6.0379,6.0406,6.0406,6.0365,6.0358,6.0424,6.0432,6.0441,6.0587,6.0453,6.0459,6.0463,6.0769,6.0775,6.078,0,0,0,0,0,0,6.0241,6.0258,6.0394,6.0327,6.0343,6.0342,6.0385,6.0383,6.0406,6.0411,6.041,6.0389,6.0421,6.0432,6.0524,6.0588,6.0462,6.0468,6.0764,6.0771,6.0777,6.0879,0,0,0,0,0,0,6.0236,6.0257,6.0306,6.0329,6.0347,6.0478,6.0389,6.0387,6.0418,6.0409,6.0434,6.0434,6.0418,6.0515,6.053,6.0594,6.0473,6.0758,6.0767,6.0775,6.087,6.0889,6.0905,0,0,0,0,0,6.0229,6.0331,6.0308,6.0326,6.0407,6.0482,6.0492,6.0473,6.0423,6.0471,6.0474,6.0433,6.0579,6.0525,6.0541,6.0608,6.0754,6.0765,6.0775,6.0862,6.0885,6.0904,0,0,0,0,0,0,6.0314,6.0333,6.0309,6.0422,6.0451,6.0469,6.0528,6.0498,6.054,6.053,6.0504,6.051,6.0607,6.0617,6.0557,6.0728,6.0658,6.0672,6.0719,6.074,6.0757,6.0752,6.0478,0,0,0,0,0,6.0346,6.0406,6.0419,6.0518,6.0534,6.0529,6.056,6.0544,6.0572,6.0583,6.0593,6.0621,6.0672,6.0707,6.0755,6.0871,6.0874,6.0925,6.0942,6.0957,6.0969,6.1029,6.1052,6.0814,6.0813,6.0813,0,0,6.0412,6.043,6.047,6.0535,6.0556,6.0617,6.054,6.0608,6.0652,6.0593,6.068,6.0689,6.0717,6.0822,6.0868,6.0832,6.1035,6.097,6.0981,6.0985,6.1042,6.1065,6.1085,6.082,6.0819,6.0818,0,0,6.0564,6.0585,6.0669,6.0691,6.0724,6.072,6.074,6.0763,6.0766,6.0854,6.081,6.0862,6.0952,6.0974,6.0997,6.1157,6.112,6.1173,6.1262,6.1322,6.1341,6.1357,6.1413,6.1433,6.1185,6.1185,6.1186,0,6.0642,6.0735,6.0715,6.0787,6.0816,6.0767,6.085,6.0872,6.0918,6.0938,6.0898,6.101,6.1025,6.1133,6.1173,6.1193,6.1214,6.117,6.134,6.1356,6.1371,6.1424,6.1445,6.1191,6.1191,6.119,6.119,0,6.0828,6.0893,6.0956,6.1004,6.104,6.1117,6.1107,6.1145,6.1125,6.1125,6.1213,6.1231,6.1281,6.1305,6.1286,6.141,6.1387,6.1344,6.1273,6.1401,6.145,6.147,6.12,6.1198,6.1196,6.1195,0,0,6.1036,6.1071,6.1095,6.1115,6.1147,6.1196,6.1269,6.132,6.1353,6.1386,6.1446,6.1523,6.1483,6.1509,6.1492,6.1544,6.1668,6.1495,6.1495,6.1525,6.1805,6.1836,6.186,6.1644,6.1648,6.1651,6.1802,0,6.1188,6.1318,6.1302,6.1425,6.1483,6.1437,6.1501,6.1527,6.1528,6.1576,6.1576,6.1631,6.1576,6.1591,6.1641,6.1643,6.1724,6.1632,6.1698,6.1701,6.1692,6.1886,6.192,6.2061,6.1821,6.1824,6.1827,0,6.1382,6.1424,6.1554,6.1576,6.16,6.1658,6.1702,6.175,6.1777,6.1774,6.1803,6.1776,6.1848,6.1776,6.1873,6.1811,6.1837,6.1842,6.1847,6.1851,6.1771,6.1895,6.2106,6.2127,6.1857,6.1854,6.1852,0,6.1519,6.1608,6.1697,6.1715,6.1744,6.1786,6.1799,6.1822,6.1853,6.1891,6.1911,6.1956,6.1981,6.2016,6.2001,6.195,6.2101,6.2027,6.2099,6.2099,6.2132,6.213,6.2349,6.2151,6.215,6.215,6.215,0,6.169,6.1771,6.1758,6.1813,6.1902,6.1881,6.1969,6.1976,6.1997,6.2051,6.2013,6.2064,6.2041,6.209,6.2079,6.216,6.2172,6.217,6.2166,6.2173,6.2173,6.2189,6.2179,6.2156,6.2154,6.2153,6.2152,0,6.1858,6.1853,6.1947,6.1966,6.1973,6.2037,6.2053,6.2103,6.2101,6.2169,6.2184,6.2181,6.2236,6.2225,6.2286,6.2278,6.238,6.2364,6.2371,6.2367,6.2439,6.2432,6.2675,6.2705,6.2488,6.249,6.2492,0,6.1967,6.2028,6.2055,6.2089,6.2106,6.2161,6.2193,6.2174,6.2208,6.2244,6.2289,6.2341,6.2382,6.2472,6.2474,6.252,6.2504,6.2586,6.251,6.2515,6.2504,6.25,6.2505,6.2601,6.2603,6.2605,6.2607,0,6.2161,6.2155,6.2203,6.2251,6.229,6.2326,6.2358,6.2387,6.2371,6.2411,6.2468,6.25,6.2562,6.2614,6.2656,6.2667,6.2634,6.2631,6.2649,6.2657,6.2658,6.2658,6.2411,6.2625,6.2623,6.2622,6.2621,6.262,6.2301,6.2353,6.238,6.2435,6.2457,6.2488,6.2536,6.254,6.2588,6.2638,6.2624,6.2688,6.2712,6.2766,6.2782,6.2831,6.28,6.2827,6.2834,6.2841,6.2849,6.2652,6.2838,6.2838,6.2837,6.2837,6.2836,0,6.2492,6.2507,6.2557,6.2604,6.2646,6.2613,6.2647,6.2684,6.2741,6.2767,6.2809,6.2873,6.2923,6.2929,6.2975,6.3013,6.2999,6.3026,6.3022,6.3025,6.2875,6.2853,6.3036,6.3036,6.3036,6.3036,6.3036,6.3036,6.2596,6.2682,6.268,6.2775,6.2789,6.2853,6.2875,6.2902,6.2923,6.2997,6.3039,6.3043,6.306,6.3108,6.3151,6.3151,6.317,6.3202,6.3197,6.3056,6.3036,6.3017,6.2997,6.3207,6.3207,6.3343,6.3344,6.3345]}]]